Погода в Итуме-Кали

Россия / Чеченская Республика     42°44′10″N   45°34′32″E
темп.,
°C
ветер,
м/с
пор.,
м/с
влажн.,
%
обл.,
%
осадки,
мм/ч
давл.,
гПа
погр.,
м
28 ноября, вс
вс2800:00+4ююз2231100 0.0 101816
03:00+3ююз223512 0.0 101817
06:00+2ююз225518 0.0 101819
09:00+6юз125762 0.0 101563
12:00+9св114699 0.0 1013383
15:00+8ю1258100 0.0 101348
18:00+5ююз337012 0.0 101447
21:00+4ююз3472100 0.0 101562
29 ноября, пн
пн2900:00+4ююз3471100 0.0 101565
03:00+4юз33727 0.0 101549
06:00+3ююз337256 0.0 101637
09:00+7ююз225995 0.0 101668
12:00+11с1145100 0.0 1014629
15:00+11ююз11500 0.0 1014134
18:00+6ююз33590 0.0 101642
21:00+7ююз43408 0.0 101538
30 ноября, вт
вт3000:00+8ююз453946 0.0 101362
03:00+9ююз5751100 0.0 1010126
06:00+9ююз6851100 0.0 1009148
09:00+11ююз5745100 0.0 1009180
12:00+12св144795 0.0 1007614
15:00+9всв146332 0.0 1007296
18:00+7ю34673 0.0 1007110
21:00+8ююз57550 0.0 1003157
1 декабря, ср
ср100:00+8ююз68510 0.0 999266
03:00+7ююз69530 0.0 997289
06:00+6ююз46590 0.0 998208
09:00+5ююз257116 0.1 1002386
12:00+7с2354100 0.1 10031196
15:000ссв2295100 2.1 1008230
18:00−3всв2295100 4.9 1012179
21:00−3св2297100 7.1 1012194
2 декабря, чт
чт200:00−4ссв2297100 3.2 1014174
03:00−6ссв019997 3.9 101638
06:00−6юз219484 0.1 101827
09:00−2ссз118330 0.1 1018164
12:00−1ссв118178 0.1 1018579
15:00−1всв118011 0.1 1019367
18:00−5ююз22875 0.0 102417
21:00−4ююз32762 0.0 102431